Tunica, MS

2:49 PM CST on February 20, 2017 (GMT -0600)
Tunica

Weather History for KUTA - January, 2013

Change the Weather History Date:

Thursday, January 10, 2013

  Actual Average (KAWM) Record (KAWM)
Temperature  
Mean Temperature 62 °F -  
Max Temperature 68 °F 44 °F 72 °F (1963)
Min Temperature 55 °F 27 °F 0 °F (1982)
Degree Days  
Heating Degree Days 4    
Growing Degree Days 12 (Base 50)    
Moisture  
Dew Point 60 °F    
Average Humidity 92    
Maximum Humidity 100    
Minimum Humidity 78    
Precipitation  
Precipitation 0.52 in - - ()
Sea Level Pressure  
Sea Level Pressure 30.06 in    
Wind  
Wind Speed 13 mph (SSE)    
Max Wind Speed 23 mph    
Max Gust Speed 36 mph    
Visibility 9 miles    
Events Rain    
Averages and records for this station are not official NWS values.
T = Trace of Precipitation, MM = Missing Value Source: NWS Daily Summary

Daily Weather History Graph

Daily Weather History Graph

Search for Another Location

Airport or City:

Trip Planner

Search our weather history database for the weather conditions in past years. The results will help you decide how hot, cold, wet, or windy it might be!

Date:

Astronomy

Jan. 10, 2013 Rise Set
Actual Time 7:09 AM CST 5:09 PM CST
Civil Twilight 6:41 AM CST 5:37 PM CST
Nautical Twilight 6:10 AM CST 6:08 PM CST
Astronomical Twilight 5:39 AM CST 6:38 PM CST
Moon 5:49 AM CST (1/10) 4:16 PM CST (1/10)
Length of Visible Light 10h 55m
Length of Day
10h 00m
Waning Crescent, 2% of the Moon is Illuminated
Jan 10
Waning Crescent
Jan 11
New
Jan 18
First Quarter
Jan 26
Full
Feb 3
Last Quarter

Hourly Weather History & Observations

Time (CST) Temp. Dew Point Humidity Pressure Visibility Wind Dir Wind Speed Gust Speed Precip Events Conditions
12:15 AM 55.4 °F 53.6 °F 94% 30.26 in 10.0 mi ENE 6.9 mph - N/A Rain Light Rain
12:35 AM 55.4 °F 53.6 °F 94% 30.25 in 10.0 mi ENE 10.4 mph - N/A   Light Drizzle
12:55 AM 55.4 °F 53.6 °F 94% 30.25 in 10.0 mi East 6.9 mph - N/A   Overcast
2:15 AM 57.2 °F 55.4 °F 94% 30.23 in 5.0 mi East 10.4 mph - 0.02 in Rain Light Rain
2:35 AM 57.2 °F 55.4 °F 94% 30.22 in 7.0 mi East 10.4 mph - 0.04 in Rain Light Rain
2:55 AM 57.2 °F 55.4 °F 94% 30.21 in 7.0 mi East 9.2 mph - 0.06 in Rain Light Rain
3:15 AM 59.0 °F 55.4 °F 88% 30.20 in 7.0 mi ESE 15.0 mph - 0.02 in Rain Rain
3:35 AM 59.0 °F 55.4 °F 88% 30.18 in 7.0 mi ESE 10.4 mph - 0.04 in Rain Light Rain
3:55 AM 59.0 °F 57.2 °F 94% 30.17 in 10.0 mi ESE 10.4 mph - 0.04 in Rain Light Rain
4:15 AM 59.0 °F 57.2 °F 94% 30.16 in 7.0 mi ESE 17.3 mph 21.9 mph 0.02 in Rain Light Rain
4:35 AM 59.0 °F 57.2 °F 94% 30.14 in 10.0 mi ESE 17.3 mph 21.9 mph 0.03 in Rain Light Rain
4:55 AM 59.0 °F 59.0 °F 100% 30.13 in 10.0 mi ESE 19.6 mph - 0.03 in Rain Light Rain
5:35 AM 60.8 °F 59.0 °F 94% 30.14 in 10.0 mi SE 16.1 mph - 0.01 in Rain Light Rain
6:15 AM 60.8 °F 59.0 °F 94% 30.16 in 7.0 mi SSE 18.4 mph 23.0 mph 0.03 in Rain Rain
6:35 AM 60.8 °F 59.0 °F 94% 30.16 in 7.0 mi SE 13.8 mph - 0.06 in Rain Light Rain
6:55 AM 60.8 °F 59.0 °F 94% 30.17 in 10.0 mi SE 15.0 mph - 0.07 in   Light Drizzle
7:35 AM 60.8 °F 59.0 °F 94% 30.17 in 10.0 mi SE 18.4 mph - 0.01 in   Drizzle
8:15 AM 60.8 °F 59.0 °F 94% 30.17 in 10.0 mi SE 16.1 mph - N/A Rain Light Rain
8:35 AM 60.8 °F 59.0 °F 94% 30.16 in 10.0 mi ESE 13.8 mph - N/A Rain Light Rain
8:55 AM 60.8 °F 59.0 °F 94% 30.17 in 10.0 mi SE 16.1 mph - 0.01 in Rain Light Rain
9:15 AM 60.8 °F 59.0 °F 94% 30.18 in 5.0 mi SE 12.7 mph - 0.03 in Rain Rain
9:35 AM 60.8 °F 59.0 °F 94% 30.17 in 10.0 mi ESE 13.8 mph - 0.03 in Rain Light Rain
9:55 AM 60.8 °F 60.8 °F 100% 30.16 in 10.0 mi ESE 12.7 mph - 0.03 in   Light Drizzle
10:15 AM 60.8 °F 60.8 °F 100% 30.16 in 10.0 mi SE 10.4 mph - 0.01 in Rain Light Rain
10:35 AM 60.8 °F 60.8 °F 100% 30.16 in 4.0 mi SE 11.5 mph - 0.05 in Rain Light Rain
10:55 AM 60.8 °F 60.8 °F 100% 30.15 in 7.0 mi SE 10.4 mph - 0.07 in Rain Light Rain
11:15 AM 60.8 °F 60.8 °F 100% 30.16 in 5.0 mi SSW 8.1 mph - 0.01 in Rain Light Rain
12:15 PM 60.8 °F 60.8 °F 100% 30.10 in 4.0 mi SE 8.1 mph - 0.05 in Rain Heavy Rain
12:35 PM 60.8 °F 60.8 °F 100% 30.04 in 7.0 mi East 16.1 mph - 0.08 in Rain Rain
12:55 PM 62.6 °F 60.8 °F 94% 29.97 in 10.0 mi ESE 19.6 mph 28.8 mph 0.09 in Rain Light Rain
1:15 PM 64.4 °F 62.6 °F 94% 30.00 in 10.0 mi SE 21.9 mph 32.2 mph N/A   Mostly Cloudy
1:35 PM 64.4 °F 62.6 °F 94% 30.00 in 10.0 mi SE 21.9 mph 28.8 mph N/A   Overcast
2:15 PM 64.4 °F 60.8 °F 88% 29.98 in 10.0 mi SE 23.0 mph 31.1 mph N/A   Mostly Cloudy
2:35 PM 64.4 °F 60.8 °F 88% 29.99 in 10.0 mi SSW 13.8 mph 27.6 mph N/A   Light Drizzle
2:55 PM 64.4 °F 60.8 °F 88% 29.97 in 10.0 mi South 19.6 mph 25.3 mph N/A   Mostly Cloudy
3:15 PM 66.2 °F 60.8 °F 83% 29.94 in 10.0 mi SSW 18.4 mph 28.8 mph N/A   Mostly Cloudy
3:35 PM 66.2 °F 60.8 °F 83% 29.91 in 10.0 mi SE 21.9 mph 31.1 mph N/A   Scattered Clouds
3:55 PM 68.0 °F 60.8 °F 78% 29.93 in 10.0 mi SE 21.9 mph 26.5 mph N/A   Clear
4:15 PM 66.2 °F 60.8 °F 83% 29.93 in 10.0 mi SSE 19.6 mph 24.2 mph N/A   Scattered Clouds
4:35 PM 64.4 °F 60.8 °F 88% 29.93 in 10.0 mi SSE 16.1 mph 26.5 mph N/A   Overcast
4:55 PM 64.4 °F 60.8 °F 88% 29.91 in 10.0 mi SE 13.8 mph - N/A   Overcast
5:15 PM 64.4 °F 60.8 °F 88% 29.90 in 10.0 mi SE 16.1 mph 23.0 mph N/A   Overcast
5:35 PM 64.4 °F 60.8 °F 88% 29.91 in 10.0 mi SSE 18.4 mph - N/A   Mostly Cloudy
5:55 PM 64.4 °F 62.6 °F 94% 29.92 in 10.0 mi SSE 17.3 mph 21.9 mph N/A   Scattered Clouds
6:15 PM 66.2 °F 62.6 °F 88% 29.93 in 10.0 mi SSE 16.1 mph 24.2 mph N/A   Mostly Cloudy
6:35 PM 66.2 °F 62.6 °F 88% 29.93 in 10.0 mi South 19.6 mph 25.3 mph N/A   Overcast
6:55 PM 66.2 °F 60.8 °F 83% 29.95 in 10.0 mi South 18.4 mph 35.7 mph N/A Rain Rain
7:15 PM 66.2 °F 60.8 °F 83% 29.95 in 10.0 mi South 21.9 mph 28.8 mph N/A   Overcast
7:35 PM 64.4 °F 60.8 °F 88% 29.97 in 7.0 mi South 17.3 mph 28.8 mph N/A Rain Rain
7:55 PM 64.4 °F 60.8 °F 88% 29.98 in 7.0 mi South 19.6 mph 27.6 mph N/A Rain Light Rain
8:15 PM 64.4 °F 60.8 °F 88% 29.99 in 10.0 mi South 18.4 mph 25.3 mph N/A   Overcast
8:35 PM 62.6 °F 60.8 °F 94% 29.99 in 10.0 mi SSW 16.1 mph 26.5 mph N/A   Overcast
8:55 PM 62.6 °F 60.8 °F 94% 29.98 in 10.0 mi SSW 12.7 mph - N/A   Overcast
9:15 PM 62.6 °F 60.8 °F 94% 29.98 in 10.0 mi SSW 9.2 mph - N/A   Overcast
9:35 PM 62.6 °F 60.8 °F 94% 29.98 in 7.0 mi SSW 10.4 mph - 0.01 in Rain Heavy Rain
9:55 PM 62.6 °F 60.8 °F 94% 29.98 in 7.0 mi SSW 9.2 mph - 0.03 in Rain Rain
10:15 PM 62.6 °F 60.8 °F 94% 29.97 in 5.0 mi South 9.2 mph - 0.03 in Rain Rain
10:35 PM 62.6 °F 60.8 °F 94% 29.97 in 7.0 mi South 11.5 mph - 0.04 in   Overcast
10:55 PM 62.6 °F 60.8 °F 94% 29.98 in 3.0 mi SW 13.8 mph 18.4 mph 0.06 in Rain Heavy Rain
11:15 PM 60.8 °F 59.0 °F 94% 29.98 in 10.0 mi SW 12.7 mph - N/A   Overcast
11:35 PM 60.8 °F 59.0 °F 94% 29.98 in 10.0 mi SSW 11.5 mph - N/A   Overcast
11:55 PM 60.8 °F 59.0 °F 94% 29.98 in 10.0 mi SSW 10.4 mph 17.3 mph N/A   Overcast